This is the latest recevied weather packets stored in our database for station/object HA2SKA-1. If no packets are shown the sender has not sent any weather packets the latest 10 day(s).
| Time | Temp. | Humidity | Pressure | Rain* | Wind** | Luminosity | Snow |
|---|---|---|---|---|---|---|---|
| 1777302958 | 20.56° C | 24% | 1021.2 hPa | - | - | - | - |
| 1777302058 | 21.11° C | 25% | 1021.3 hPa | - | - | - | - |
| 1777301158 | 20.56° C | 24% | 1021.5 hPa | - | - | - | - |
| 1777300258 | 21.11° C | 24% | 1021.6 hPa | - | - | - | - |
| 1777299358 | 21.11° C | 24% | 1021.7 hPa | - | - | - | - |
| 1777298458 | 21.67° C | 25% | 1021.8 hPa | - | - | - | - |
| 1777297558 | 21.11° C | 25% | 1022.1 hPa | - | - | - | - |
| 1777296657 | 20° C | 25% | 1022.2 hPa | - | - | - | - |
| 1777295757 | 20.56° C | 25% | 1022.5 hPa | - | - | - | - |
| 1777294857 | 21.11° C | 24% | 1022.6 hPa | - | - | - | - |
| 1777293957 | 20.56° C | 23% | 1022.7 hPa | - | - | - | - |
| 1777293056 | 21.11° C | 24% | 1023 hPa | - | - | - | - |
| 1777292156 | 21.11° C | 24% | 1023.1 hPa | - | - | - | - |
| 1777291256 | 20° C | 25% | 1023.3 hPa | - | - | - | - |
| 1777290356 | 20.56° C | 25% | 1023.4 hPa | - | - | - | - |
| 1777288565 | 20° C | 25% | 1023.8 hPa | - | - | - | - |
| 1777287665 | 19.44° C | 23% | 1024 hPa | - | - | - | - |
| 1777286765 | 20° C | 25% | 1024.2 hPa | - | - | - | - |
| 1777285865 | 20° C | 25% | 1024.5 hPa | - | - | - | - |
| 1777284964 | 19.44° C | 25% | 1024.6 hPa | - | - | - | - |
| 1777284064 | 18.89° C | 25% | 1024.7 hPa | - | - | - | - |
| 1777283164 | 20° C | 25% | 1024.8 hPa | - | - | - | - |
| 1777282264 | 18.89° C | 24% | 1025 hPa | - | - | - | - |
| 1777281364 | 18.89° C | 25% | 1025.2 hPa | - | - | - | - |
| 1777280464 | 19.44° C | 26% | 1025.4 hPa | - | - | - | - |
* Rain since midnight (hover to see other rain measurements)
** Current wind speed in m/s (hover to see current wind gust speed)